Regional Weather Roundup
Issued by NWS

Home | Current Version | Previous Version | Graphics & Text | Print | Product List | Glossary On
Versions: 1 2 3 4 5 6 7 8 9 10 11 12 13 14 15 16 17 18 19 20 21 22 23 24 25 26 27 28 29 30 31 32 33 34 35 36 37 38 39 40 41 42 43 44 45 46 47 48 49 50
000
ASUS43 KLSX 251107
RWRMO

WEATHER SUMMARY FOR MISSOURI
NATIONAL WEATHER SERVICE SPRINGFIELD MO
600 AM CDT SAT OCT 25 2014

NOTE: "FAIR" INDICATES FEW OR NO CLOUDS BELOW 12,000 FEET WITH NO
       SIGNIFICANT WEATHER AND/OR OBSTRUCTIONS TO VISIBILITY.
       CURRENT SKY AND/OR WEATHER CONDITIONS ARE NOT AVAILABLE FOR
       CHILLICOTHE AND FARMINGTON.

MOZ001>031-035>038-043-044-053-054-251200-
...NORTHERN AND WESTERN MISSOURI...

CITY           SKY/WX    TMP DP  RH WIND       PRES   REMARKS
KANSAS CTY INT FOG       55  53  93 CALM      30.03R VSB 1/4
KANSAS C DTWN  FOG       57  55  93 CALM      30.03R VSB 1/4
LEE`S SUMMIT   FOG       58  57  97 SW3       30.04R VSB 1/4
ST JOSEPH      FOG       48  48 100 CALM      30.05R VSB 1/4
CHILLICOTHE      N/A     53  52  96 CALM      30.03R
KIRKSVILLE     FOG       53  53 100 W5        30.02R VSB 1/4

$$
MOZ066>068-077>081-088>096-101>105-251200-
...SOUTHWEST MISSOURI...

CITY           SKY/WX    TMP DP  RH WIND       PRES   REMARKS
SPRINGFIELD    CLEAR     64  59  83 W9        30.05S
JOPLIN         CLEAR     62  59  90 SW9       30.07R

$$
MOZ032>034-039>042-045>050-055>058-069>072-251200-
...CENTRAL MISSOURI...

CITY           SKY/WX    TMP DP  RH WIND       PRES   REMARKS
COLUMBIA       CLEAR     59  58  96 NW5       30.02R
JEFFERSON CITY FOG       54  53  97 CALM      30.02R VSB 1/4
ROLLA          CLEAR     58  56  93 W8        30.02R
SEDALIA        CLEAR     61  58  90 SW5       30.03R
WHITEMAN AFB   CLEAR     58  56  95 W5        30.02R
OSAGE BEACH    CLEAR     57  55  94 CALM      30.04R

$$
MOZ051-052-059>065-251200-
...EAST CENTRAL MISSOURI...

CITY           SKY/WX    TMP DP  RH WIND       PRES   REMARKS
ST LOUIS INTL  PTCLDY    59  56  89 W3        30.01R
SPIRIT OF STL  CLEAR     57  56  96 NE3       30.00R
ST CHARLES     CLEAR     54  52  93 CALM      30.00R FOG

$$
MOZ072>076-082>087-097>100-106>115-251200-
...SOUTH CENTRAL AND SOUTHEAST MISSOURI...

CITY           SKY/WX    TMP DP  RH WIND       PRES   REMARKS
CAPE GIRARDEAU PTCLDY    52  51  97 CALM      30.04R FOG
FARMINGTON     CLEAR     55  54  94 CALM      30.04S
POPLAR BLUFF   CLEAR     55  52  89 SW3       30.04R FOG
WEST PLAINS    CLEAR     58  56  93 W9        30.08R

$$



USA.gov is the U.S. government's official web portal to all federal, state and local government web resources and services.